sat.trackr.live / text

‹ back to catalog

CENTISPACE-1 GROUP 05 O*

NORAD 69587 · 2026-138F

PAYLOAD ACTIVE UNKNOWN

§ Identity

Operator
Country
PRC
Launch date
2026-06-17
Launch site
JSC
Launch vehicle
Mass (kg)
RCS (m²)

External: N2YO · Heavens-Above · Gunter

§ Orbital elements

Epoch: 2026-09-18T18:40:32.926368Z

Period
102.46 min
Inclination
55.1373°
Eccentricity
0.0002293
Mean motion
14.05470489 rev/d
Perigee alt
873.3 km
Apogee alt
876.6 km
Semi-major
7,253.1 km
B*
-2.5948e-1
RAAN
296.2113°
Arg perigee
277.7065°
Mean anomaly
82.3644°
Rev number
1,326

§ Raw data

CENTISPACE-1 GROUP 05 O*1 69587U 26138F   26261.77815887 -.00404143  00000+0 -25948+0 0  99972 69587  55.1373 296.2113 0002293 277.7065  82.3644 14.05470489 13266

JSON: /api/v1/satellites/69587 · /tle

For live sub-satellite position, see the globe view (requires WebGL).

§ Visibility from observer

Set your observer location to see the next 7 days of passes ≥ 10°. The values pass through the URL so the page stays shareable.

No JS? Fill the form by hand. The geolocation button needs JavaScript.